{"data":{"norad_id":63000,"epoch":"2026-05-25T04:31:45.071904Z","epoch_age_seconds":52037,"freshness":"FRESH","line1":"1 63000U 25031V   26145.18871611  .00018552  00000+0  68169-3 0  9994","line2":"2 63000  43.0041  71.4031 0001652 265.3166  94.7497 15.27594824 72794","mean_motion":15.27594824,"eccentricity":0.0001652,"inclination_deg":43.0041,"raan_deg":71.4031,"arg_perigee_deg":265.3166,"mean_anomaly_deg":94.7497,"bstar":0.00068169,"rev_number":7279,"period_min":94.265833935557,"perigee_km":481.87124739954,"apogee_km":484.13816861987,"semimajor_km":6861.1417080097,"source":"CELESTRAK","updated_at":"2026-05-25T13:38:19.834155Z"}}